Regional Weather Roundup
Issued by NWS

Home | Current Version | Previous Version | Text Only | Print | Product List | Glossary Off
Versions: 1 2 3 4 5 6 7 8 9 10 11 12 13 14 15 16 17 18 19 20 21 22 23 24 25 26 27 28 29 30 31 32 33 34 35 36 37 38 39 40 41 42 43 44 45 46 47 48 49 50

000
ASUS43 KMPX 250801
RWRMN
WEATHER ROUNDUP FOR MINNESOTA
NATIONAL WEATHER SERVICE TWIN CITIES/CHANHASSEN MN
300 AM CDT SAT OCT 25 2014


NOTE: "FAIR" INDICATES FEW OR NO CLOUDS BELOW 12,000 FEET WITH NO
SIGNIFICANT WEATHER AND/OR OBSTRUCTIONS TO VISIBILITY. N/A MEANS
CURRENT SKY AND/OR WEATHER CONDITIONS ARE NOT AVAILABLE.

MNZ060>063-068>070-250900-
   Twin Cities Metro

CITY           SKY/WX    TMP DP  RH WIND       PRES   REMARKS
TWIN CITIES    MOCLDY    60  38  43 NW14      29.94R
ST PAUL        PTCLDY    55  40  56 NW12      29.94R
CRYSTAL        PTCLDY    58  38  47 NW8       29.94R
BLAINE         PTCLDY    55  39  54 W12       29.95R
LAKEVILLE      PTCLDY    54  43  66 W7        29.95R
EDEN PRAIRIE   PTCLDY    60  38  43 NW10      29.94R
SOUTH ST PAUL  PTCLDY    60  38  42 NW8G16    29.93R
LAKE ELMO      FAIR      55  41  58 NW10      29.94R
$$
MNZ001>005-007-008-013>017-022>024-027-028-250900-
   Northwest Minnesota

CITY           SKY/WX    TMP DP  RH WIND       PRES   REMARKS
BEMIDJI        CLEAR     47  32  55 W15       29.90S
HALLOCK        CLEAR     46  32  57 W14       29.92R
ROSEAU         CLEAR     46  34  61 NW15      29.87R
WARROAD        CLEAR     46  36  66 W13G21    29.85R
THIEF RVR FALL CLEAR     45  30  57 W12       29.93R
CROOKSTON      CLEAR     46  34  61 NW13      29.96R
FOSSTON        CLEAR     37  30  75 SW6       29.96R
DETROIT LAKES  PTCLDY    48  32  53 NW13      29.98R
MOORHEAD       CLEAR     46  32  57 W8        30.00S
PARK RAPIDS    CLEAR     49  33  54 NW12      29.93R
MAHNOMEN       FAIR      44  32  64 W12       29.96R
$$
MNZ006-009>011-018-025>026-250900-
   North Central Minnesota

CITY           SKY/WX    TMP DP  RH WIND       PRES   REMARKS
BAUDETTE       CLEAR     47  32  56 W8        29.83R
FLAG ISLAND    CLEAR     48  36  61 W22G28    29.79R
INTL FALLS     CLEAR     48  33  56 W14       29.79R
WASKISH        CLEAR     48  39  71 W14       29.86R
BIG FORK       CLEAR     52  32  46 W10G16    29.84R
LONGVILLE      CLEAR     52  34  50 W12G18    29.90R
GRAND RAPIDS   CLEAR     52  32  46 W12G17    29.86R
CRANE LAKE     CLEAR     50  30  46 W6        29.78R
ORR            CLEAR     52  30  43 W15G25    29.77R
COOK           CLEAR     52  34  50 W13G24    29.80R
WALKER         FAIR      50  32  50 W13       29.90R
$$
MNZ012-019>021-037-250900-
   Northeast Minnesota

CITY           SKY/WX    TMP DP  RH WIND       PRES   REMARKS
DULUTH         CLEAR     53  34  48 W15       29.81R
ELY            CLEAR     52  30  43 W14G25    29.75R
HIBBING        CLEAR     54  32  43 NW13G26   29.81R
EVELETH        CLEAR     52  32  46 NW15      29.81R
DULUTH HARBOR  CLEAR     54  39  58 SW12      29.82S
TWO HARBORS    CLEAR     55  23  28 W9        29.77R
SILVER BAY     CLEAR     55  34  44 W6        29.74S
GRAND MARAIS     N/A     54  36  50 W6        29.67S
G MARAIS ARPRT CLEAR     48  32  53 W8G17     29.69S
$$
MNZ029>031-032-039>041-046>048-054>057-064-250900-
   West Central Minnesota

CITY           SKY/WX    TMP DP  RH WIND       PRES   REMARKS
FERGUS FALLS   CLEAR     46  28  49 NW7       30.01R
WHEATON        MOCLDY    52  36  54 W8        30.05R
MORRIS         MOCLDY    52  36  54 NW10      30.01R
ALEXANDRIA     CLEAR     49  35  58 NW8       30.00R
ELBOW LAKE     FAIR      47  35  63 NW5       30.00R
WADENA         CLEAR     48  34  57 NW7       29.95S
GLENWOOD       PTCLDY    50  36  57 W9        30.00R
APPLETON       CLOUDY    55  37  50 NW8       30.01S
BENSON         CLOUDY    52  37  58 N7        30.00F
ORTONVILLE     CLOUDY    55  36  47 NW9       30.02S
MADISON        CLOUDY    57  39  51 NW6       30.02F
WILLMAR        FAIR      55  37  50 NW7       30.01S
$$
MNZ033>034-036-042>043-049>051-058-059-250900-
   Central Minnesota

CITY           SKY/WX    TMP DP  RH WIND       PRES   REMARKS
ST CLOUD       CLEAR     58  34  40 W12       29.96R
SAUK CENTRE    FAIR      45  35  66 W7        29.98R
PAYNESVILLE    PTCLDY    50  35  57 SW8       29.99R
AITKIN         CLEAR     54  34  47 W6        29.89R
PINE RIVER     CLEAR     52  36  54 W3        29.95R
BRAINERD       CLEAR     52  33  48 W9        29.93R
STAPLES        CLEAR     48  34  57 NW10      29.94S
LONG PRAIRIE   FAIR      52  32  46 W9        29.97R
LITTLE FALLS   CLEAR     50  32  50 W3        29.95R
LITCHFIELD     PTCLDY    59  36  41 NW9       29.99R
BUFFALO        PTCLDY    58  36  43 W7        29.97R
MAPLE LAKE     PTCLDY    57  39  50 W7        29.98R
$$
MNZ037-044-045-052-053-250900-
   East Central Minnesota

CITY           SKY/WX    TMP DP  RH WIND       PRES   REMARKS
PRINCETON      CLEAR     52  37  58 W5        29.95R
MORA           CLEAR     50  34  53 W7        29.93R
CAMBRIDGE      CLEAR     55  39  54 W5        29.92R
RUSH CITY      PTCLDY    50  38  63 W5        29.92R
MOOSE LAKE     CLEAR     52  32  46 W7        29.85S
HINCKLEY       FAIR      54  36  50 CALM      29.90R
CLOQUET        CLEAR     52  34  50 W10       29.84S
MCGREGOR       CLEAR     54  36  50 W8        29.89R
$$
MNZ071>073-080-081-089-090-097-098-250900-
   Southwest Minnesota

CITY           SKY/WX    TMP DP  RH WIND       PRES   REMARKS
MONTEVIDEO     CLOUDY    55  39  54 N8        30.02S
GRANITE FALLS  CLOUDY    56  40  55 W9        30.04R
CANBY          CLOUDY    58  36  45 NW9       30.05S
MARSHALL       CLOUDY    55  37  50 NW12      30.03R
REDWOOD FALLS  CLOUDY    58  37  45 NW10      30.01R
OLIVIA         CLOUDY    54  41  62 NW8       30.00R
PIPESTONE      MOCLDY    54  39  58 N3        30.05R
WINDOM         MOCLDY    57  37  47 NW12      30.02S
WORTHINGTON    MOCLDY    55  39  54 NW7       30.05S
JACKSON        PTCLDY    55  37  50 NW7       30.03R
TRACY          CLOUDY    59  39  46 NW9       30.04R
SLAYTON        CLOUDY    53  40  61 NW7       30.05R
$$
MNZ065>067-074>077-082>085-091>093-250900-
   South Central Minnesota

CITY           SKY/WX    TMP DP  RH WIND       PRES   REMARKS
MANKATO        PTCLDY    54  37  54 NW12      29.98R
NEW ULM        PTCLDY    55  41  58 NW8       29.99
ST JAMES       MOCLDY    57  39  51 W7        30.01R
FAIRMONT       MOCLDY    57   3  11 NW10      30.01R
GLENCOE        MOCLDY    56  43  61 W9        29.97R
FARIBAULT      PTCLDY    54  43  66 W6        29.97R
OWATONNA       CLEAR     48  41  76 CALM      29.97R
WASECA         CLEAR     46  36  66 W7        29.99R
ALBERT LEA     CLEAR     52  43  71 W6        29.98R
$$
MNZ078>079-086>088-094>096-250900-
   Southeast Minnesota

CITY           SKY/WX    TMP DP  RH WIND       PRES   REMARKS
ROCHESTER      CLEAR     51  45  79 NW9       29.96R
RED WING       PTCLDY    46  45  93 W5        29.92R
STANTON        PTCLDY    56  44  64 W7        29.94R
DODGE CENTER   PTCLDY    54  45  71 NW9       29.96R
WINONA         CLEAR     54  52  94 CALM      29.92R
AUSTIN         CLEAR     52  45  76 NW9       29.97R
PRESTON        CLEAR     52  46  79 NW9       29.95R
$$
ABBREVIATIONS USED IN REMARKS
   TC - TEMPERATURES IN CELSIUS
  WCI - WIND CHILL INDEX
   HX - HEAT INDEX
  VSB - VISIBILITY
$$



USA.gov is the U.S. government's official web portal to all federal, state and local government web resources and services.